Starlink 5321

operational
NORAD ID: 55302 Int'l Des: 2023-010 Owner: SPXS Country: US Constellation: starlink
LEOCIRCULAR

Starlink 5321について

説明を読み込み中...

リアルタイム位置

3D地球を読み込み中...

次回通過

高度履歴

Altitude vs Time

uPlot chart will show altitude changes over time

軌道要素

1 55302U 23010AK 25341.17524851 .00007468 00000-0 63285-3 0 9991
2 55302 70.0011 257.6194 0003092 272.5750 87.5055 14.98341415159412
Epoch: Dec 7, 2025 • Age: 16 hours

現在のステータス

高度 582.8 km
速度 7.57 km/s
衛星直下点 -33.57°S, 135.82°W
打ち上げ日 Jan 19, 2023
運用期間 2.8 years
タイプ internet

技術仕様

分類 Payload
質量 305.00 kg
乾燥質量 290.00 kg
総質量 305.00 kg
長さ 0.20 m
直径 2.80 m
スパン 9.00 m
形状 Box + pan
製造者 SPXS
バスタイプ Starlink
フェーズステータス In Orbit
所有者/国 SPXS/US

大規模コンステレーション

Loading constellations...